Vertical_Velocity
1 1 1 1 0 0 0 -0 0 1 0 -0 -0 -1 -1 -1 -1 -1 -1 0 -1 -1 -1 -0 0 1 0 -4 -3 -2 -1 3 2 -1 -1 -2 -1 0 0 1 -0 1 -1
1 1 2 1 -1 -1 -1 -0 -1 -0 -0 1 0 -0 -1 -1 -1 -1 -2 -1 -2 -2 -1 -2 -3 -1 0 -2 -1 -2 -1 -4 -1 -1 -0 1 1 -0 -1 -2 -1 -0 -0
1 1 1 1 1 -0 -0 1 0 0 -0 -1 -1 -1 -0 -0 -1 -1 -2 -1 -1 -3 -1 -1 -2 -3 1 -0 1 -3 -2 2 -3 -7 -1 -1 -3 -2 1 -0 1 -2 -1
-0 0 1 2 1 1 0 -1 -1 -2 -2 -1 -0 -0 -1 -2 -2 -1 -2 -0 1 -1 -2 -0 -3 -2 -3 -4 -1 -1 -3 -4 -1 -1 -5 -5 -1 -2 -1 1 -2 2 2
1 -0 2 2 1 0 1 -0 0 -0 -0 -0 0 -1 -1 -1 -2 -1 -2 -1 -1 1 -0 1 -1 -1 -1 -1 0 -1 -1 -2 -3 -1 -2 -1 -6 -5 -2 -1 2 -0 -2
-2 1 0 0 1 -0 1 1 -0 1 -1 -0 1 -1 -0 -2 -0 -1 -1 -2 -1 1 2 2 1 -3 -1 1 3 0 -1 -1 -1 -2 -2 0 -1 -1 -4 -3 -1 2 -1
0 -1 1 1 1 2 1 -0 -0 -1 -2 -3 2 -1 -0 -1 -1 0 -0 -4 -2 -1 0 0 1 -0 1 -0 2 3 1 -2 -0 -1 1 -2 -1 -0 -0 -0 -4 -2 2
5 -4 -1 -1 -2 1 0 -1 2 2 -2 -3 2 1 7 1 -4 -0 -1 -4 -4 -2 -1 -2 0 -1 0 1 1 -4 4 1 -1 -1 -0 0 -1 -3 -1 -1 3 -1 -5
27 22 12 9 3 3 -1 -2 -1 4 2 -2 -0 -2 2 8 -2 -2 1 -0 -1 1 2 -2 1 -2 -1 0 0 2 -3 2 -3 -2 0 1 -0 -0 -1 0 1 1 -1
3 15 0 7 6 12 0 -3 -2 -3 5 1 -1 -6 -4 -1 1 10 -1 -2 -5 1 1 1 -1 -2 -1 -1 0 1 -2 1 -1 -0 0 1 -2 -2 2 0 0 1 -0
6 8 12 5 5 4 -2 0 -0 2 0 3 -0 -3 -2 -5 -4 -3 18 -0 -4 -3 1 2 1 -1 -1 -0 0 0 2 -3 -3 -0 0 0 1 -1 0 -0 -1 -0 2
18 10 3 5 -3 -1 -3 -2 -5 -5 0 0 0 -0 -0 -3 -3 -5 -7 7 2 -0 -0 -1 1 -1 -1 -0 1 -0 -0 -1 -1 -2 0 -2 0 -1 -0 1 0 -0 -1
1 -4 -6 -3 -2 -3 -1 -2 -1 -3 -2 1 1 2 1 0 -3 -4 -3 -1 -3 3 4 -1 1 -2 0 0 -1 -1 2 -0 2 -0 -1 -1 -2 -1 -2 0 2 -1 -1
4 3 -2 -0 -3 -0 -2 -1 -4 -1 -1 -3 -3 1 -1 -1 -1 2 -0 -5 -1 -6 2 1 2 2 -1 0 1 1 -1 -0 -1 -2 -1 -0 1 -2 -0 -1 1 0 -0
1 -0 -1 -1 -2 0 -1 0 -2 -3 -1 -2 -2 -1 1 -0 0 -1 0 -2 -3 1 -2 2 -1 -2 -1 3 2 1 -0 1 1 -4 -2 -0 -0 -2 0 -0 0 -1 -1
1 1 1 1 1 -4 -5 -4 -3 -3 -1 -1 -1 -1 1 -1 0 -1 1 1 -1 -3 -6 1 -0 -0 0 1 1 1 1 -1 1 -2 1 2 3 -2 -2 -1 -0 -0 -2
-1 5 5 5 2 -2 -0 -1 -1 -3 -0 -0 -0 0 1 0 -2 0 -2 -1 0 -2 -4 -1 3 -2 2 0 2 -1 -1 2 3 -4 -1 1 1 1 -1 -0 -2 0 1
1 -1 5 2 -1 -2 -2 -1 -1 0 -2 -2 -3 -1 3 1 1 -2 -1 -1 0 2 0 -2 1 1 1 1 0 0 1 1 -1 -1 -0 3 -0 1 2 -0 -0 -1 -1
0 1 -1 -1 -2 -2 -2 -1 0 -1 -4 -2 -3 -4 -1 -2 -2 -1 1 0 -1 0 3 4 1 1 1 4 1 3 2 -2 1 0 3 4 -0 1 3 0 -2 -2 1
-2 -1 -0 -0 -0 -1 -3 -1 -1 -1 -3 -1 -2 -3 1 -0 -1 2 0 -2 0 1 -1 4 6 3 4 -2 4 2 -2 2 -0 2 -1 2 1 1 3 1 2 -1 -1
-2 -1 -3 -3 -1 -1 -1 -1 1 -1 4 -2 -1 -2 -0 -1 -1 0 -1 -1 -1 1 1 -0 1 5 -0 -5 -1 2 2 0 2 2 -0 2 1 1 2 0 1 1 -2
-1 -2 -3 -2 -3 0 -1 -1 2 -0 -2 -1 -2 0 -0 -0 -0 1 0 1 3 1 -1 1 3 -1 2 -2 1 1 1 1 4 2 0 0 1 2 2 -0 1 -0 0
-2 -1 -1 -2 -2 -1 -0 1 -1 -1 -1 -1 -1 -2 -1 -0 -0 -0 1 -1 2 2 -0 9 4 2 -2 3 8 2 1 -0 1 2 1 -0 -0 2 2 1 1 -1 -1
-2 -1 -1 -1 0 0 -0 1 -1 -0 -0 -0 -2 -1 -0 -1 -1 0 -0 -0 0 2 1 -3 -3 0 -0 4 1 -1 1 1 1 2 1 1 2 3 2 2 0 1 -0
-1 -0 -2 -1 -1 -1 -1 -0 -2 -0 -1 -2 -2 -2 -0 0 -0 -0 -1 1 1 -1 4 5 5 2 2 -2 -2 2 -1 0 2 1 1 1 0 1 2 -0 1 0 1
-0 -0 -1 -1 -1 -2 -2 -1 -2 -1 -1 -2 -1 -2 -2 -1 -1 -0 0 1 -0 2 7 5 1 2 1 1 1 -0 -0 -0 1 -0 0 1 1 -0 1 -1 -0 1 0
Height
5855 5856 5857 5858 5858 5859 5860 5860 5860 5860 5860 5860 5859 5859 5858 5857 5856 5854 5853 5851 5849 5847 5845 5842 5840 5836 5833 5828 5824 5821 5817 5814 5812 5809 5806 5802 5798 5794 5791 5789 5786 5784 5782
5851 5852 5853 5854 5854 5854 5855 5856 5856 5856 5856 5856 5855 5854 5853 5852 5851 5849 5848 5846 5844 5842 5840 5837 5834 5831 5827 5823 5820 5816 5812 5809 5806 5803 5800 5797 5793 5789 5786 5784 5781 5779 5778
5845 5846 5848 5849 5849 5850 5851 5851 5851 5851 5851 5851 5850 5849 5848 5847 5846 5844 5843 5842 5840 5837 5834 5832 5829 5826 5821 5816 5813 5810 5806 5803 5801 5797 5794 5791 5787 5783 5780 5778 5776 5774 5773
5841 5841 5842 5843 5844 5844 5845 5845 5846 5846 5846 5846 5845 5844 5843 5843 5841 5839 5837 5836 5834 5831 5828 5826 5823 5820 5816 5811 5807 5804 5801 5798 5795 5791 5787 5784 5781 5778 5774 5772 5771 5769 5767
5834 5836 5837 5837 5838 5839 5838 5839 5839 5840 5841 5841 5840 5840 5838 5837 5836 5833 5832 5830 5828 5827 5824 5821 5817 5814 5811 5806 5802 5799 5796 5792 5789 5785 5780 5776 5773 5770 5768 5766 5764 5763 5762
5827 5829 5830 5831 5832 5832 5832 5832 5833 5834 5834 5834 5834 5833 5832 5830 5829 5827 5825 5823 5822 5820 5817 5814 5810 5806 5803 5799 5795 5792 5788 5786 5782 5778 5774 5769 5766 5763 5760 5759 5758 5756 5755
5820 5821 5822 5823 5824 5824 5824 5825 5825 5827 5827 5827 5827 5826 5825 5823 5822 5820 5818 5815 5813 5811 5809 5806 5802 5798 5795 5791 5788 5785 5781 5779 5775 5771 5766 5763 5760 5757 5755 5753 5750 5749 5747
5811 5813 5814 5815 5816 5816 5816 5816 5817 5819 5819 5819 5819 5819 5819 5817 5813 5812 5810 5808 5805 5803 5799 5796 5793 5790 5786 5783 5780 5777 5774 5770 5767 5764 5759 5755 5752 5750 5748 5747 5745 5742 5739
5805 5804 5806 5805 5806 5807 5807 5809 5809 5810 5811 5810 5809 5809 5809 5808 5806 5805 5801 5799 5797 5794 5791 5787 5784 5781 5778 5775 5772 5770 5766 5764 5760 5756 5752 5748 5745 5743 5741 5739 5737 5736 5734
5798 5799 5799 5800 5801 5799 5800 5801 5803 5802 5802 5801 5800 5799 5798 5797 5795 5796 5792 5789 5787 5784 5781 5778 5775 5771 5769 5766 5764 5762 5759 5756 5751 5748 5745 5742 5738 5736 5735 5731 5729 5728 5727
5791 5791 5789 5789 5790 5789 5791 5792 5794 5794 5793 5792 5791 5790 5789 5787 5785 5783 5782 5778 5777 5773 5771 5768 5765 5762 5759 5757 5755 5753 5751 5748 5743 5740 5736 5734 5732 5729 5726 5724 5723 5721 5720
5781 5781 5782 5782 5782 5782 5782 5783 5783 5784 5784 5783 5781 5779 5777 5776 5774 5772 5770 5766 5762 5761 5759 5757 5755 5752 5750 5748 5747 5744 5742 5739 5735 5732 5729 5727 5725 5721 5718 5717 5716 5715 5714
5771 5771 5771 5772 5773 5774 5773 5773 5774 5773 5772 5770 5768 5767 5765 5764 5762 5760 5757 5756 5753 5751 5749 5747 5745 5743 5740 5738 5737 5735 5733 5730 5727 5723 5722 5720 5717 5714 5712 5710 5710 5709 5709
5760 5761 5761 5762 5762 5762 5763 5762 5762 5761 5759 5756 5756 5755 5753 5752 5750 5748 5746 5744 5742 5740 5739 5737 5735 5733 5730 5729 5727 5726 5723 5720 5718 5716 5714 5712 5710 5707 5706 5704 5704 5703 5704
5749 5750 5750 5750 5752 5753 5752 5751 5749 5749 5748 5746 5745 5743 5741 5740 5739 5736 5735 5732 5730 5729 5728 5727 5725 5723 5721 5719 5717 5716 5714 5711 5709 5707 5707 5703 5702 5702 5699 5698 5698 5697 5697
5739 5740 5741 5742 5741 5740 5740 5740 5739 5737 5736 5735 5734 5732 5730 5727 5725 5724 5723 5721 5718 5717 5717 5716 5714 5713 5711 5708 5707 5705 5703 5701 5700 5699 5699 5696 5694 5695 5695 5692 5692 5691 5691
5729 5729 5729 5727 5726 5727 5728 5728 5727 5726 5724 5723 5722 5720 5718 5716 5714 5713 5710 5709 5707 5704 5704 5704 5701 5699 5699 5698 5696 5695 5693 5692 5691 5691 5691 5690 5689 5689 5688 5687 5686 5686 5686
5717 5718 5717 5716 5715 5715 5716 5715 5715 5714 5713 5711 5709 5707 5705 5702 5700 5699 5697 5695 5693 5691 5691 5690 5689 5688 5687 5686 5686 5684 5684 5683 5683 5683 5683 5681 5682 5683 5682 5681 5681 5680 5680
5707 5706 5706 5705 5705 5705 5705 5704 5703 5701 5699 5697 5695 5692 5690 5688 5686 5683 5681 5680 5679 5678 5677 5676 5676 5676 5675 5675 5675 5675 5675 5674 5675 5675 5674 5671 5674 5675 5675 5675 5674 5674 5674
5694 5694 5694 5693 5693 5692 5692 5691 5689 5687 5685 5683 5680 5678 5676 5673 5671 5669 5667 5667 5666 5664 5664 5664 5663 5664 5664 5663 5665 5664 5665 5665 5667 5667 5666 5666 5665 5667 5667 5667 5667 5667 5667
5684 5684 5684 5683 5682 5681 5680 5678 5676 5674 5672 5670 5668 5666 5664 5661 5659 5657 5656 5655 5654 5653 5652 5652 5653 5653 5654 5653 5654 5654 5655 5656 5658 5658 5658 5658 5658 5659 5659 5659 5659 5659 5659
5674 5674 5674 5673 5671 5670 5668 5666 5664 5662 5661 5659 5656 5654 5652 5649 5647 5646 5644 5643 5642 5642 5642 5641 5642 5644 5644 5644 5644 5645 5646 5648 5649 5650 5650 5650 5650 5651 5651 5652 5652 5652 5651
5665 5664 5663 5662 5660 5659 5657 5655 5653 5652 5650 5647 5644 5642 5640 5638 5636 5635 5634 5632 5632 5632 5631 5632 5633 5633 5633 5633 5634 5635 5637 5640 5641 5642 5641 5641 5642 5642 5643 5644 5644 5644 5644
5655 5654 5653 5652 5651 5649 5647 5645 5643 5641 5639 5636 5633 5630 5628 5627 5626 5625 5624 5623 5622 5622 5622 5622 5622 5623 5623 5624 5625 5627 5630 5631 5633 5633 5632 5632 5633 5634 5635 5636 5636 5636 5636
5645 5644 5643 5642 5641 5640 5638 5636 5634 5632 5630 5627 5624 5621 5619 5618 5617 5616 5615 5614 5613 5613 5613 5613 5613 5613 5615 5616 5618 5620 5622 5623 5624 5624 5624 5624 5625 5625 5626 5627 5628 5628 5627
5634 5634 5633 5632 5631 5630 5628 5627 5625 5623 5620 5618 5615 5613 5611 5610 5609 5608 5607 5606 5606 5606 5606 5606 5606 5607 5609 5610 5612 5613 5614 5615 5616 5616 5616 5616 5616 5617 5617 5617 5618 5618 5618